Regional Weather Roundup
Issued by NWS Midland/Odessa, TX

Home | Current Version | Previous Version | Text Only | Print | Product List | Glossary On
Versions: 1 2 3 4 5 6 7 8 9 10 11 12 13 14 15 16 17 18 19 20 21 22 23 24 25 26 27 28 29 30 31 32 33 34 35 36 37 38 39 40 41 42 43 44 45 46 47 48 49 50
000
ASUS44 KMAF 051710
RWRMAF
MIDLAND AREA WEATHER ROUNDUP
NATIONAL WEATHER SERVICE MIDLAND TX
1200 PM CDT SAT SEP 05 2015

...IN SOUTHWEST TEXAS AND SOUTHEAST NEW MEXICO...

CITY           SKY/WX    TMP DP  RH WIND       PRES   REMARKS
ALPINE         SUNNY     86  55  35 SW5       30.18S
ANDREWS        FAIR      86  64  47 SE13      30.08S
ARTESIA        SUNNY     86  61  42 SE9G15    30.08S
BIG SPRING     SUNNY     84  64  51 SE9       30.08F
CARLSBAD       SUNNY     86  61  42 SE10      30.04S
DRYDEN           N/A     87  71  58 VRB7      30.02S
FORT STOCKTON  SUNNY     88  64  44 SE12      30.04F
GUAD PASS      MOSUNNY   81  55  40 E12       30.20R
HOBBS          SUNNY     84  63  48 SE13      30.10S
MARFA          SUNNY     82  57  42 S8        30.17S
MIDLAND AIRPK  MOSUNNY   89  65  45 S13       30.06F
MIDLAND INTL   SUNNY     87  66  49 S12       30.06S
ODESSA         NOT AVBL
PECOS          SUNNY     90  59  35 E8        30.00S
PRESIDIO       FAIR      90  57  32 SW3       30.01F
SEMINOLE       SUNNY     87  60  39 S12G20    30.09F
SNYDER         SUNNY     87  68  53 S8        30.06S
WINK           SUNNY     88  65  46 SE15      30.02S
$$
...OTHER STATIONS IN TEXAS...

CITY           SKY/WX    TMP DP  RH WIND       PRES   REMARKS
ABILENE        SUNNY     89  69  51 SW9       30.04S
AMARILLO       SUNNY     87  59  38 SW15G22   30.09S
AUSTIN         PTSUNNY   89  71  55 S13       30.01F
BROWNSVILLE    MOSUNNY   91  74  57 S23G30    29.99S HX 100
CORPUS CHRISTI MOSUNNY   92  76  59 S22G30    29.98F HX 104
DALLAS FTW     PTSUNNY   88  71  56 S12       30.02F
DEL RIO        CLOUDY    85  73  67 SE12      29.98S
EL PASO        PTSUNNY   85  55  35 N6        30.08R
HOUSTON INT    PTSUNNY   91  76  61 CALM      30.02F HX 103
LUBBOCK        MOSUNNY   86  62  44 S10       30.09S
SAN ANGELO     SUNNY     90  68  48 SE14      30.02F
SAN ANTONIO    PTSUNNY   91  71  51 S14       30.02F
WACO           SUNNY     91  70  49 S13       30.03F
WICHITA FALLS  NOT AVBL
$$
...OTHER LOCATIONS IN NEW MEXICO...

CITY           SKY/WX    TMP DP  RH WIND       PRES   REMARKS
ALAMAGORDO     MOSUNNY   81  52  36 CALM      30.12R
ALBUQUERQUE    PTSUNNY   75  56  51 W7        30.20S
CANNON AFB     SUNNY     85  55  35 SW17G24   30.12S
CLOVIS         SUNNY     86  55  35 S15G23    30.13S
HOLLOMAN AFB   PTSUNNY   84  53  35 VRB1      30.09R
ROSWELL        SUNNY     85  59  41 S9G17     30.08S
RUIDOSO        NOT AVBL
SANTA FE       SUNNY     71  54  54 S7        30.25R
TRUTH OR CONSE MOSUNNY   76  56  49 CALM      30.16R
TUCUMCARI      SUNNY     87  55  33 S13       30.09S
$$



USA.gov is the U.S. government's official web portal to all federal, state and local government web resources and services.